NOAA 16 DEB, 41510

Orbit data source: Space-Track

NOAA 16 DEB, 41510 is space debris in SSO originally from a launch on Thu, 21 Sep 2000 UTC launched from the Air Force Western Test Range (AFWTR). Debris objects in space refer to the collection of defunct objects orbiting the Earth. Examples of debris include non-operational satellites, rocket bodies, and fragments generated from explosions, collisions, or faulty payload assembly.

Loading next visibility...
Identifier
41510, 2000-055MJ
Orbit
SSO
Country
Flag of USUS
Related business
Manufacturer
Unknown
Mission
Spacecraft
Bus & Motor
Unknown
Mass
Unknown
Launch date (UTC)
2000-09-21 (25 years ago)
Launch vehicle
Unknown
Launch site
Air Force Western Test Range (AFWTR)
Object type
Payload
Rocket body
Debris
Shape & HBR
Unknown shape, 0.1 m
Radar Cross Section
Small (<0.1 m²)

Expand to show TLE details & history
Last TLE update: 2 days ago

TLE from 2 days ago
0 NOAA 16 DEB
1 41510U 00055MJ  26032.18899245  .00003483  00000-0  13968-2 0  9997
2 41510  98.7568 125.2443 0022340  52.4364 307.8842 14.28764147509967
Epoch: 2026-02-01T04:32Z
TLE epoch observation values (Epoch: 2026-02-01T04:32:08.947Z)
Latitude
-0.00004°
Longitude
-74.19518°
Altitude
788.969 km
Speed
7.464 km/s
True Right ascension
08h 20m 58s
True Declination
0° 00' 00"
Sunlit
Object was in full shadow at epoch
Visualization orbit readout
Latitude
Unknown
Longitude
Unknown
Altitude
Unknown
Speed
Unknown
Apparent Right ascension
Unknown
Apparent Declination
Unknown
Sunlit
N/A
Visualization observer readout
Local Sidereal Time
13:43:13
Azimuth
Unknown
Elevation
Unknown
Doppler factor
Unknown
Orbital elements
Apogee altitude
809.034 km
Perigee altitude
776.994 km
Semi-major axis
7,171.151 km
Eccentricity
0.00223
Inclination
98.7568°
RAAN
125.2443°
Arg. of periapsis
52.4364°
True anomaly
307.68181°
Mean anomaly
307.8842°
Eccentric anomaly
307.78304°
Mean motion
3.57404 °/min
Orbital period
100.73 mins
BSTAR
0.0013968
Loading maneuver chart data...
Computing Atmospheric mass density...
Loading historical data...
Loading historical data...
Loading historical data...
Loading historical data...
Loading historical data...
Loading historical data...
Loading historical data...

Documentation

Showing up to 5 results
|